[[{"header":{"parameterUnit":"m.s-1","parameterCategory":1,"la1":30.2991,"la2":30.254,"lo1":-89.0895,"lo2":-89.0444,"dy":0.0017,"dx":0.0017,"nx":28,"ny":28,"refTime":"2025-06-19T03:00:00:Z","depth":0,"parameterNumber":2,"parameterNumberName":"U-component_of_WINDS"},"data":[0,0,0,0,0,0,0,0,0,0,0,0,0,0,0,0,0,0,0,0,0,0,0,0,0,0,0,0,0,0,0,0,0,0,0,0,0,0,0,0,0,0,0,0,0,0,0,0,0,0,0,0,0,0,0,0,0,0,1.6512,1.6513,0,1.6615,1.6616,1.6617,1.661,1.6608,1.6607,1.6605,1.6717,1.6721,1.6725,0,0,0,0,0,0,0,0,0,0,0,0,0,1.6315,1.6319,1.6512,1.6513,1.6514,1.6614,1.6616,1.6617,1.661,1.6608,1.6606,1.6604,1.6715,1.672,1.6726,0,0,0,0,0,0,0,0,0,0,0,0,0,1.6408,1.632,1.6512,1.6523,1.6525,1.6614,1.6616,1.6618,1.661,1.6608,1.6606,1.6603,1.6713,1.672,1.6726,1.6814,0,0,1.6747,1.6749,0,0,0,0,0,0,0,0,1.6402,1.6415,1.652,1.6522,1.6524,1.6597,1.6587,1.6684,1.6611,1.6578,1.6605,1.6602,1.6679,1.6688,1.6713,1.6819,1.6824,1.6747,1.6751,1.6754,1.6756,0,0,0,0,0,0,0,1.6396,1.641,1.6553,1.6521,1.6524,1.6524,1.6535,1.6606,1.6641,1.6581,1.658,1.6592,1.668,1.6707,1.6715,1.6825,1.6747,1.6753,1.6757,1.6759,1.701,1.7012,0,0,0,0,0,0,1.6386,1.6405,1.6549,1.6556,1.6456,1.653,1.6542,1.6576,1.664,1.6647,1.6594,1.6592,1.6696,1.6708,1.6719,1.6827,1.6754,1.676,1.6764,1.7007,1.701,1.7013,0,0,0,0,0,0,1.6382,1.6399,1.6545,1.648,1.6499,1.6536,1.6574,1.6579,1.6606,1.665,1.6656,1.6615,1.6695,1.671,1.679,1.6831,1.6763,1.6769,1.7004,1.7008,1.7012,1.7042,0,0,0,0,0,0,1.6376,1.6398,1.643,1.6481,1.6502,1.6613,1.6577,1.6583,1.6617,1.6614,1.6671,1.6678,1.6694,1.678,1.6797,1.6839,1.6774,1.7001,1.7006,1.7011,1.7038,1.7046,1.7054,0,0,0,0,0,1.6369,1.6435,1.6431,1.6449,1.6543,1.6615,1.6627,1.6643,1.662,1.6653,1.6682,1.6676,1.6823,1.6789,1.6807,1.6851,1.6998,1.7004,1.701,1.7034,1.7045,1.7054,0,0,0,0,0,0,1.639,1.6442,1.6438,1.6522,1.6564,1.6613,1.6656,1.6654,1.6705,1.6701,1.672,1.6733,1.6814,1.684,1.6801,1.694,1.6908,1.6918,1.692,1.693,1.6938,1.6931,1.678,0,0,0,0,0,1.6403,1.6455,1.6499,1.6569,1.659,1.662,1.6651,1.666,1.6705,1.6723,1.6757,1.6802,1.6859,1.6896,1.695,1.7041,1.7054,1.7081,1.7089,1.7096,1.7105,1.7156,1.7169,1.7033,1.7033,1.7033,0,0,1.6434,1.6468,1.6501,1.6574,1.6607,1.6663,1.6635,1.6694,1.6736,1.6733,1.681,1.6837,1.6889,1.6975,1.7015,1.7,1.7145,1.7103,1.7108,1.7114,1.7164,1.7176,1.7188,1.7037,1.7036,1.7036,0,0,1.6517,1.6547,1.661,1.6643,1.6693,1.6712,1.6727,1.6777,1.6794,1.6872,1.687,1.6922,1.7018,1.7056,1.7087,1.7185,1.7182,1.7202,1.7246,1.7296,1.7307,1.7317,1.7353,1.7366,1.7211,1.7211,1.7211,0,1.6548,1.663,1.6643,1.6703,1.6736,1.6733,1.6797,1.683,1.6896,1.692,1.6902,1.7023,1.7058,1.7154,1.7177,1.7203,1.7222,1.7196,1.7304,1.7314,1.7323,1.7358,1.7371,1.7213,1.7213,1.7212,1.7212,0,1.6667,1.6724,1.6769,1.683,1.6869,1.6931,1.6955,1.6992,1.6997,1.7019,1.7099,1.7141,1.7204,1.7227,1.7233,1.7324,1.7313,1.7299,1.7268,1.7338,1.7371,1.7385,1.7216,1.7215,1.7215,1.7214,0,0,1.6767,1.6835,1.6851,1.6879,1.6934,1.698,1.7042,1.7102,1.7135,1.7181,1.7235,1.7317,1.7304,1.734,1.7351,1.7394,1.7471,1.7375,1.7377,1.7393,1.7575,1.7586,1.7602,1.7469,1.7471,1.7473,1.7571,0,1.6857,1.6966,1.6979,1.7077,1.7131,1.7129,1.7184,1.7225,1.7247,1.7297,1.7322,1.738,1.7358,1.738,1.7423,1.7452,1.7508,1.7445,1.7522,1.7524,1.751,1.7619,1.7631,1.7721,1.7584,1.7587,1.7588,0,1.6977,1.7024,1.7127,1.7175,1.7198,1.7247,1.7303,1.7351,1.7398,1.7411,1.745,1.7455,1.7523,1.7487,1.7581,1.7538,1.757,1.7589,1.7593,1.7602,1.7562,1.7632,1.775,1.7765,1.7608,1.7607,1.7605,0,1.7042,1.7131,1.7204,1.7229,1.7286,1.7321,1.7347,1.7391,1.7426,1.7476,1.75,1.7557,1.7589,1.7635,1.7656,1.7628,1.7749,1.7715,1.7764,1.7764,1.7791,1.7789,1.7918,1.7809,1.7809,1.7809,1.7808,0,1.7142,1.7205,1.7234,1.7279,1.7351,1.7366,1.7437,1.7462,1.7502,1.7553,1.7555,1.7604,1.7628,1.7681,1.7698,1.7774,1.7789,1.7803,1.7807,1.7804,1.7802,1.7826,1.7821,1.7812,1.7811,1.7811,1.781,0,1.7227,1.7248,1.7328,1.7376,1.7389,1.744,1.7481,1.7527,1.7547,1.7613,1.7629,1.7663,1.7726,1.7751,1.7828,1.7839,1.7928,1.7926,1.7911,1.7913,1.7961,1.7957,1.8111,1.8132,1.8008,1.8009,1.801,0,1.729,1.7339,1.7391,1.7424,1.7451,1.7505,1.7541,1.7558,1.7596,1.7653,1.7692,1.7753,1.7804,1.7905,1.7938,1.7997,1.7998,1.8048,1.8007,1.8002,1.8001,1.7998,1.8004,1.8056,1.8057,1.8058,1.8059,0,1.7401,1.7409,1.7459,1.7514,1.7556,1.76,1.7643,1.7671,1.7695,1.7738,1.78,1.784,1.7917,1.798,1.8041,1.807,1.807,1.8071,1.8086,1.8084,1.8074,1.8081,1.7933,1.8068,1.8067,1.8066,1.8066,1.8065,1.7478,1.7522,1.7565,1.7621,1.7655,1.7695,1.774,1.7766,1.7818,1.7881,1.7889,1.7957,1.8004,1.8085,1.8117,1.8172,1.8159,1.818,1.8186,1.8191,1.8195,1.8063,1.8183,1.8182,1.8182,1.8182,1.8182,0,1.759,1.7618,1.7669,1.7729,1.7774,1.7766,1.7814,1.7852,1.7911,1.7954,1.8003,1.8076,1.8137,1.8174,1.8235,1.8272,1.8273,1.8288,1.8286,1.8293,1.8202,1.8184,1.8285,1.8285,1.8285,1.8285,1.8285,1.8285,1.7654,1.7727,1.7741,1.7832,1.7859,1.7924,1.7952,1.799,1.8024,1.8105,1.8154,1.8177,1.8218,1.8282,1.8338,1.8347,1.8371,1.8386,1.8395,1.831,1.8299,1.8289,1.8272,1.8391,1.8391,1.8482,1.8483,1.8483]},{"header":{"parameterUnit":"m.s-1","parameterCategory":1,"la1":30.2991,"la2":30.254,"lo1":-89.0895,"lo2":-89.0444,"dy":0.0017,"dx":0.0017,"nx":28,"ny":28,"refTime":"2025-06-19T03:00:00:Z","depth":0,"parameterNumber":3,"parameterNumberName":"V-component_of_WINDS"},"data":[0,0,0,0,0,0,0,0,0,0,0,0,0,0,0,0,0,0,0,0,0,0,0,0,0,0,0,0,0,0,0,0,0,0,0,0,0,0,0,0,0,0,0,0,0,0,0,0,0,0,0,0,0,0,0,0,0,0,2.087,2.087,0,2.0873,2.0873,2.0873,2.0857,2.0857,2.0856,2.0856,2.0856,2.0857,2.0857,0,0,0,0,0,0,0,0,0,0,0,0,0,2.0845,2.0845,2.087,2.087,2.087,2.0873,2.0873,2.0873,2.0857,2.0857,2.0856,2.0856,2.0856,2.0857,2.0857,0,0,0,0,0,0,0,0,0,0,0,0,0,2.0852,2.0845,2.087,2.0862,2.0862,2.0873,2.0873,2.0873,2.0857,2.0857,2.0856,2.0855,2.0856,2.0857,2.0857,2.0875,0,0,2.0859,2.086,0,0,0,0,0,0,0,0,2.0852,2.0853,2.0863,2.0863,2.0862,2.0864,2.0864,2.0874,2.0858,2.0859,2.0856,2.0855,2.0859,2.086,2.0862,2.0875,2.0875,2.0859,2.086,2.086,2.086,0,0,0,0,0,0,0,2.0852,2.0853,2.0871,2.0864,2.0863,2.0857,2.0858,2.0866,2.0863,2.0859,2.0858,2.0858,2.0859,2.0861,2.0862,2.0875,2.0859,2.086,2.086,2.0861,2.0898,2.0898,0,0,0,0,0,0,2.0853,2.0853,2.0871,2.0871,2.0855,2.0858,2.0859,2.0864,2.0863,2.0862,2.0859,2.0858,2.086,2.0861,2.0862,2.0879,2.086,2.0861,2.0861,2.0897,2.0898,2.0898,0,0,0,0,0,0,2.0852,2.0854,2.0871,2.0862,2.0863,2.0859,2.0866,2.0865,2.0867,2.0863,2.0862,2.0862,2.086,2.0861,2.0871,2.0879,2.0861,2.0862,2.0896,2.0897,2.0898,2.0916,0,0,0,0,0,0,2.0851,2.0854,2.0863,2.0862,2.0864,2.0882,2.0866,2.0865,2.0868,2.0867,2.0866,2.0865,2.0859,2.087,2.0871,2.0879,2.0862,2.0895,2.0897,2.0898,2.0915,2.0917,2.092,0,0,0,0,0,2.0851,2.0868,2.0863,2.0865,2.0874,2.0882,2.0883,2.0878,2.0869,2.0876,2.0873,2.0865,2.0878,2.0871,2.0873,2.0881,2.0895,2.0896,2.0898,2.0913,2.0917,2.092,0,0,0,0,0,0,2.087,2.0868,2.0863,2.0881,2.0882,2.088,2.0889,2.0882,2.0885,2.0883,2.0875,2.0875,2.0885,2.0884,2.0877,2.0895,2.0885,2.0886,2.0896,2.0899,2.0902,2.0901,2.0863,0,0,0,0,0,2.0876,2.0884,2.0882,2.0897,2.0898,2.0893,2.0897,2.0892,2.0892,2.0893,2.089,2.089,2.0893,2.0896,2.09,2.0914,2.0912,2.092,2.0922,2.0925,2.0926,2.0929,2.0932,2.0903,2.0903,2.0903,0,0,2.089,2.0889,2.0895,2.0901,2.0902,2.0908,2.0894,2.0903,2.0906,2.0894,2.0903,2.0901,2.0899,2.0911,2.0915,2.091,2.0933,2.0926,2.0928,2.0928,2.0931,2.0934,2.0936,2.0904,2.0903,2.0903,0,0,2.0916,2.0919,2.093,2.093,2.093,2.0926,2.0929,2.0927,2.0925,2.0934,2.0923,2.0927,2.0935,2.0933,2.0933,2.0955,2.0946,2.0956,2.0969,2.0972,2.0975,2.0977,2.0982,2.0984,2.0957,2.0957,2.0957,0,2.0933,2.0944,2.0937,2.0945,2.0946,2.0934,2.0944,2.0944,2.0946,2.0946,2.094,2.0946,2.0945,2.0954,2.0958,2.096,2.096,2.0956,2.0975,2.0977,2.0979,2.0983,2.0986,2.0958,2.0958,2.0958,2.0958,0,2.0962,2.0969,2.0978,2.0978,2.0981,2.099,2.0982,2.0985,2.0979,2.0975,2.0981,2.0979,2.098,2.0981,2.0976,2.0988,2.0984,2.0977,2.0966,2.0983,2.0987,2.0989,2.096,2.0959,2.0959,2.0959,0,0,2.1003,2.0997,2.1001,2.0999,2.0997,2.1001,2.1008,2.1009,2.101,2.101,2.1014,2.1018,2.101,2.101,2.1003,2.1007,2.102,2.0998,2.0998,2.1001,2.103,2.1035,2.1037,2.1014,2.1015,2.1015,2.1029,0,2.1027,2.104,2.1032,2.1045,2.1049,2.1036,2.1041,2.1039,2.1034,2.1035,2.103,2.1032,2.1022,2.1022,2.1024,2.1018,2.1026,2.1017,2.1015,2.1015,2.1015,2.104,2.1046,2.106,2.1031,2.1031,2.1032,0,2.1058,2.1059,2.1072,2.1065,2.1066,2.1072,2.1069,2.1072,2.1067,2.1063,2.1062,2.1053,2.1056,2.1045,2.1048,2.1042,2.104,2.1037,2.1037,2.1036,2.1024,2.1038,2.1065,2.1066,2.1035,2.1034,2.1034,0,2.1084,2.1088,2.1095,2.1094,2.1087,2.109,2.1087,2.1083,2.1082,2.108,2.1079,2.1077,2.1076,2.1073,2.1063,2.1056,2.1066,2.1055,2.106,2.106,2.1063,2.1063,2.1088,2.1064,2.1064,2.1064,2.1064,0,2.1111,2.1119,2.1106,2.111,2.1117,2.1107,2.1114,2.1109,2.1104,2.1105,2.1094,2.1095,2.1082,2.1081,2.1073,2.1075,2.1075,2.107,2.1067,2.107,2.1071,2.1069,2.1067,2.1064,2.1064,2.1064,2.1064,0,2.1141,2.1133,2.1139,2.1131,2.1129,2.1135,2.1127,2.1129,2.1122,2.1124,2.1124,2.1113,2.1111,2.11,2.1096,2.109,2.1094,2.109,2.1095,2.1094,2.1099,2.1098,2.1124,2.1125,2.1101,2.1101,2.1102,0,2.1158,2.1164,2.1155,2.1156,2.1153,2.1154,2.1153,2.1142,2.1141,2.1134,2.1137,2.1134,2.1131,2.1127,2.1118,2.1113,2.1108,2.1117,2.1108,2.1109,2.1106,2.1106,2.1105,2.1119,2.112,2.112,2.112,0,2.1189,2.1184,2.1184,2.1181,2.118,2.1177,2.1174,2.1174,2.1161,2.116,2.1158,2.1156,2.115,2.1146,2.114,2.1134,2.1124,2.1123,2.1124,2.1127,2.1129,2.1126,2.11,2.1123,2.1122,2.1122,2.1122,2.1122,2.1212,2.1214,2.1208,2.1207,2.1203,2.1199,2.12,2.1193,2.1191,2.1186,2.1179,2.1177,2.1168,2.1159,2.1153,2.115,2.1145,2.1147,2.1147,2.1147,2.1148,2.113,2.1149,2.1149,2.1149,2.1149,2.1149,0,2.124,2.1234,2.1234,2.1228,2.1227,2.1218,2.1212,2.1211,2.121,2.1203,2.12,2.1195,2.1191,2.118,2.1173,2.1172,2.1167,2.1171,2.1171,2.1169,2.1154,2.1153,2.1175,2.1175,2.1175,2.1175,2.1175,2.1175,2.1254,2.1258,2.1251,2.1251,2.1246,2.1244,2.1241,2.1236,2.1231,2.1226,2.1223,2.1216,2.1206,2.1199,2.1193,2.119,2.1187,2.1192,2.1187,2.1173,2.117,2.1168,2.1167,2.1192,2.1192,2.1202,2.1202,2.1202]}]]